Location: Llanfihangel-Ystrad
(52.1833°N, 4.1667°W)
Time: 08:15:01
(UTC+00:00)

STARLINK-1178 - Pass Details

Date: 17 February 2020
Orbit: 554 x 556 km, 53.0° (Epoch: 31 March)

Event Time Altitude Azimuth Distance (km) Brightness Sun altitude
Exits shadow 06:23:06 15° 281° (W) 1,531 5.2 -10.7°
Maximum altitude 06:26:30 85° 8° (N) 566 3.6 -10.2°
Drops below altitude 10° 06:30:43 10° 99° (E) 1,843 8.0 -9.6°
Sets 06:32:57 0° 100° (E) 2,738 9.6 -9.2°
